Albion, NE

7:58 PM CST on November 21, 2019 (GMT -0600)
Albion Municipal

Weather History for KBVN - October, 2019

Change the Weather History Date:

Monday, October 21, 2019

  Actual Average (WUND) Record (WUND)
Temperature  
Mean Temperature 43 °F -  
Max Temperature 47 °F - - (-1)
Min Temperature 39 °F - - (-1)
Degree Days  
Heating Degree Days 22    
Moisture  
Dew Point 37 °F    
Average Humidity 81    
Maximum Humidity 89    
Minimum Humidity 64    
Precipitation  
Precipitation 0.00 in - - ()
Sea Level Pressure  
Sea Level Pressure 29.56 in    
Wind  
Wind Speed 13 mph ()    
Max Wind Speed 34 mph    
Max Gust Speed 43 mph    
Visibility 10.0 miles    
Events Thunderstorm    
Averages and records for this station are not official NWS values.
T = Trace of Precipitation, MM = Missing Value Source: Averaged Metar Reports

Daily Weather History Graph

Daily Weather History Graph

Search for Another Location

Airport or City:

Astronomy

Oct. 21, 2019 Rise Set
Actual Time 7:51 AM CDT 6:41 PM CDT
Civil Twilight 7:22 AM CDT 7:10 PM CDT
Nautical Twilight 6:50 AM CDT 7:42 PM CDT
Astronomical Twilight 6:18 AM CDT 8:14 PM CDT
Moon No Moon Rise 3:13 PM CDT (10/21)
Length of Visible Light 11h 47m
Length of Day
10h 50m
Waning Gibbous, 48% of the Moon is Illuminated
Oct 21
Waning Gibbous
Oct 27
New
Nov 4
First Quarter
Nov 12
Full
Nov 19
Last Quarter

Hourly Weather History & Observations

Time (CDT) Temp. Windchill Dew Point Humidity Pressure Visibility Wind Dir Wind Speed Gust Speed Precip Events Conditions
12:15 AM 41.2 °F - 33.3 °F 73% 29.48 in 10.0 mi Calm Calm - N/A   Clear
12:35 AM 40.1 °F - 32.9 °F 75% 29.46 in 10.0 mi Calm Calm - N/A   Clear
12:55 AM 39.2 °F 37.0 °F 32.7 °F 78% 29.44 in 10.0 mi WNW 3.5 mph - N/A   Clear
1:15 AM 39.9 °F - 32.9 °F 76% 29.43 in 10.0 mi Calm Calm - N/A   Clear
1:35 AM 39.4 °F - 32.7 °F 77% 29.43 in 10.0 mi Calm Calm - N/A   Clear
1:55 AM 39.7 °F - 33.8 °F 79% 29.43 in 10.0 mi Calm Calm - N/A   Clear
2:15 AM 39.6 °F - 34.2 °F 81% 29.44 in 10.0 mi Calm Calm - N/A   Clear
2:35 AM 40.6 °F 36.7 °F 35.6 °F 82% 29.44 in 10.0 mi NW 5.8 mph - N/A   Scattered Clouds
2:55 AM 41.5 °F 35.9 °F 37.8 °F 86% 29.44 in 10.0 mi WNW 9.2 mph - N/A   Overcast
3:15 AM 42.8 °F 35.1 °F 39.0 °F 86% 29.44 in 10.0 mi WNW 16.1 mph - N/A   Overcast
3:35 AM 43.3 °F 37.7 °F 39.7 °F 87% 29.43 in 10.0 mi WNW 10.4 mph - N/A   Overcast
4:35 AM 41.9 °F 35.0 °F 37.6 °F 85% 29.43 in 10.0 mi NW 12.7 mph 17.3 mph N/A   Overcast
4:55 AM 41.0 °F 33.9 °F 36.9 °F 85% 29.43 in 10.0 mi NW 12.7 mph 20.7 mph N/A   Overcast
5:35 AM 41.0 °F 33.5 °F 36.7 °F 85% 29.44 in 10.0 mi NW 13.8 mph 23.0 mph N/A   Overcast
5:55 AM 40.6 °F 33.0 °F 36.5 °F 85% 29.44 in 10.0 mi WNW 13.8 mph 20.7 mph N/A   Overcast
6:15 AM 40.6 °F 31.7 °F 36.5 °F 85% 29.43 in 10.0 mi WNW 18.4 mph 23.0 mph N/A   Overcast
6:35 AM 40.5 °F 32.5 °F 36.0 °F 84% 29.43 in 10.0 mi WNW 15.0 mph 23.0 mph N/A   Overcast
6:55 AM 40.3 °F 33.0 °F 36.1 °F 85% 29.43 in 10.0 mi WNW 12.7 mph - N/A   Overcast
7:15 AM 40.5 °F 34.6 °F 36.1 °F 85% 29.42 in 10.0 mi NW 9.2 mph - N/A   Overcast
7:30 AM 40.6 °F 33.0 °F 36.5 °F 85% 29.42 in 10.0 mi WNW 13.8 mph 21.9 mph N/A   Overcast
7:55 AM 40.6 °F 33.0 °F 36.3 °F 85% 29.41 in 10.0 mi WNW 13.8 mph 24.2 mph N/A   Overcast
8:15 AM 40.5 °F 32.5 °F 36.3 °F 85% 29.41 in 10.0 mi NW 15.0 mph 20.7 mph N/A   Overcast
8:35 AM 41.2 °F 33.7 °F 36.9 °F 85% 29.41 in 10.0 mi NW 13.8 mph 20.7 mph N/A   Overcast
8:55 AM 41.9 °F 33.4 °F 37.0 °F 83% 29.41 in 10.0 mi NW 18.4 mph 24.2 mph N/A   Overcast
9:15 AM 42.4 °F 34.1 °F 37.8 °F 83% 29.42 in 10.0 mi NW 18.4 mph 26.5 mph N/A   Overcast
9:35 AM 43.5 °F 34.5 °F 39.2 °F 85% 29.44 in 10.0 mi NW 23.0 mph 26.5 mph N/A   Overcast
9:55 AM 44.4 °F 36.6 °F 40.8 °F 87% 29.45 in 10.0 mi NW 18.4 mph 24.2 mph N/A   Overcast
10:15 AM 45.9 °F 38.0 °F 41.2 °F 84% 29.46 in 10.0 mi NW 20.7 mph 31.1 mph N/A   Overcast
10:35 AM 46.4 °F 38.1 °F 41.0 °F 81% 29.46 in 10.0 mi NW 24.2 mph 33.4 mph N/A   Overcast
10:55 AM 45.0 °F 36.4 °F 41.9 °F 89% 29.47 in 10.0 mi NW 23.0 mph 32.2 mph N/A   Overcast
11:15 AM 44.8 °F 36.2 °F 41.2 °F 87% 29.48 in 10.0 mi WNW 23.0 mph 34.5 mph N/A   Overcast
11:35 AM 44.6 °F 36.1 °F 41.0 °F 87% 29.48 in 10.0 mi NW 21.9 mph 29.9 mph N/A   Overcast
11:55 AM 44.6 °F 35.1 °F 41.0 °F 87% 29.49 in 10.0 mi WNW 27.6 mph 36.8 mph N/A Thunderstorm Overcast
12:15 PM 44.1 °F 35.7 °F 40.6 °F 88% 29.50 in 10.0 mi NW 20.7 mph 35.7 mph N/A   Overcast
12:35 PM 44.2 °F 35.7 °F 39.9 °F 85% 29.51 in 10.0 mi NW 21.9 mph 29.9 mph N/A   Overcast
12:55 PM 45.0 °F 37.4 °F 39.7 °F 82% 29.51 in 10.0 mi NW 18.4 mph 31.1 mph N/A   Overcast
1:15 PM 45.7 °F 37.4 °F 40.1 °F 81% 29.52 in 10.0 mi NW 23.0 mph 28.8 mph N/A   Overcast
1:35 PM 46.4 °F 37.9 °F 40.1 °F 79% 29.53 in 10.0 mi WNW 25.3 mph 34.5 mph N/A   Overcast
1:55 PM 45.5 °F 36.9 °F 40.6 °F 83% 29.53 in 10.0 mi NW 24.2 mph 38.0 mph N/A   Overcast
2:15 PM 46.8 °F - 40.8 °F 80% 29.53 in 10.0 mi NW 28.8 mph 35.7 mph N/A   Overcast
2:35 PM 46.8 °F - 41.0 °F 80% 29.53 in 10.0 mi NW 28.8 mph 40.3 mph N/A   Overcast
2:55 PM 47.3 °F - 40.8 °F 78% 29.54 in 10.0 mi NW 25.3 mph 36.8 mph N/A   Overcast
3:15 PM 46.8 °F - 39.7 °F 77% 29.56 in 10.0 mi NW 34.5 mph 42.6 mph N/A   Overcast
3:35 PM 45.9 °F 36.4 °F 39.2 °F 78% 29.58 in 10.0 mi NW 29.9 mph 39.1 mph N/A   Overcast
3:55 PM 45.3 °F 35.4 °F 39.4 °F 80% 29.60 in 10.0 mi NW 32.2 mph 42.6 mph N/A   Light Drizzle
4:15 PM 43.9 °F 35.0 °F 40.1 °F 87% 29.61 in 10.0 mi NW 23.0 mph 38.0 mph N/A   Light Drizzle
4:35 PM 43.9 °F 35.4 °F 39.9 °F 86% 29.63 in 10.0 mi NW 20.7 mph 34.5 mph N/A   Light Drizzle
4:55 PM 43.9 °F 35.7 °F 40.1 °F 87% 29.65 in 10.0 mi NW 19.6 mph 38.0 mph N/A   Overcast
5:15 PM 44.2 °F 35.9 °F 39.9 °F 85% 29.66 in 10.0 mi NW 20.7 mph 31.1 mph N/A   Overcast
5:35 PM 44.1 °F 34.6 °F 39.9 °F 85% 29.67 in 10.0 mi NW 26.5 mph 35.7 mph N/A   Overcast
5:55 PM 43.7 °F 35.2 °F 40.3 °F 88% 29.69 in 7.0 mi NW 20.7 mph 33.4 mph N/A   Drizzle
6:15 PM 43.3 °F 33.6 °F 39.7 °F 87% 29.70 in 10.0 mi NW 26.5 mph 40.3 mph N/A   Light Drizzle
6:35 PM 43.3 °F 34.0 °F 39.2 °F 85% 29.72 in 10.0 mi NW 24.2 mph 41.4 mph N/A   Light Drizzle
6:55 PM 43.2 °F 34.7 °F 39.4 °F 86% 29.73 in 10.0 mi NW 19.6 mph 31.1 mph N/A   Overcast
7:15 PM 43.3 °F 35.0 °F 39.0 °F 85% 29.74 in 10.0 mi NW 19.6 mph 32.2 mph N/A   Overcast
7:35 PM 43.3 °F 34.5 °F 38.7 °F 84% 29.76 in 10.0 mi NW 21.9 mph 33.4 mph N/A   Overcast
7:55 PM 43.2 °F 34.2 °F 38.5 °F 84% 29.77 in 10.0 mi NW 21.9 mph 33.4 mph N/A   Overcast
8:15 PM 43.3 °F 35.0 °F 37.4 °F 80% 29.78 in 10.0 mi NW 19.6 mph 32.2 mph N/A   Overcast
8:35 PM 43.9 °F 35.2 °F 36.5 °F 75% 29.78 in 10.0 mi NW 21.9 mph 36.8 mph N/A   Overcast
8:55 PM 44.6 °F 35.9 °F 35.6 °F 71% 29.79 in 10.0 mi NW 23.0 mph 35.7 mph N/A   Overcast
9:15 PM 44.8 °F 36.4 °F 34.3 °F 67% 29.79 in 10.0 mi NW 21.9 mph 33.4 mph N/A   Overcast
9:35 PM 44.6 °F 36.6 °F 33.4 °F 65% 29.79 in 10.0 mi NW 19.6 mph 29.9 mph N/A   Mostly Cloudy
9:55 PM 44.2 °F 36.2 °F 32.7 °F 64% 29.80 in 10.0 mi NW 19.6 mph 27.6 mph N/A   Scattered Clouds
10:15 PM 43.5 °F 35.0 °F 32.7 °F 66% 29.81 in 10.0 mi NW 20.7 mph 26.5 mph N/A   Clear
10:35 PM 43.5 °F 34.7 °F 32.2 °F 64% 29.82 in 10.0 mi NW 21.9 mph 27.6 mph N/A   Clear
10:55 PM 43.3 °F 35.0 °F 32.0 °F 64% 29.82 in 10.0 mi NW 19.6 mph 32.2 mph N/A   Clear
11:15 PM 43.0 °F 34.2 °F 31.8 °F 65% 29.83 in 10.0 mi NW 20.7 mph 29.9 mph N/A   Clear
11:35 PM 42.6 °F 33.8 °F 31.8 °F 66% 29.84 in 10.0 mi NW 20.7 mph 32.2 mph N/A   Clear
11:55 PM 41.5 °F 33.2 °F 32.0 °F 69% 29.84 in 10.0 mi NW 17.3 mph 25.3 mph N/A   Clear